Athens, OH

7:33 AM EDT on May 25, 2017 (GMT -0400)
Ohio University

Weather History for KUNI - June, 2014

Change the Weather History Date:

Saturday, June 7, 2014

  Actual Average (KPKB) Record (KPKB)
Temperature  
Mean Temperature 64 °F -  
Max Temperature 80 °F 80 °F 95 °F (1933)
Min Temperature 49 °F 58 °F 42 °F (1977)
Growing Degree Days 14 (Base 50)    
Moisture  
Dew Point 50 °F    
Average Humidity 64    
Maximum Humidity 94    
Minimum Humidity 30    
Precipitation  
Precipitation 0.00 in - - ()
Sea Level Pressure  
Sea Level Pressure 29.99 in    
Wind  
Wind Speed 1 mph (East)    
Max Wind Speed 9 mph    
Max Gust Speed -    
Visibility 10 miles    
Events      
Averages and records for this station are not official NWS values.
T = Trace of Precipitation, MM = Missing Value Source: NWS Daily Summary

Daily Weather History Graph

Daily Weather History Graph

Search for Another Location

Airport or City:

Trip Planner

Search our weather history database for the weather conditions in past years. The results will help you decide how hot, cold, wet, or windy it might be!

Date:

Astronomy

Jun. 07, 2014 Rise Set
Actual Time 6:02 AM EDT 8:53 PM EDT
Civil Twilight 5:30 AM EDT 9:25 PM EDT
Nautical Twilight 4:50 AM EDT 10:05 PM EDT
Astronomical Twilight 4:04 AM EDT 10:51 PM EDT
Moon 3:11 PM EDT (6/7) 2:21 AM EDT (6/7)
Length of Visible Light 15h 54m
Length of Day
14h 50m
Waxing Gibbous, 67% of the Moon is Illuminated
Jun 7
Waxing Gibbous
Jun 13
Full
Jun 19
Last Quarter
Jun 27
New
Jul 5
First Quarter

Hourly Weather History & Observations

Time (EDT) Temp. Dew Point Humidity Pressure Visibility Wind Dir Wind Speed Gust Speed Precip Events Conditions
12:10 AM 54.7 °F 50.7 °F 86% 30.03 in 10.0 mi Calm Calm - N/A   Clear
12:30 AM 54.3 °F 50.4 °F 86% 30.03 in 10.0 mi Calm Calm - N/A   Clear
12:50 AM 54.5 °F 51.3 °F 89% 30.03 in 10.0 mi Calm Calm - N/A   Clear
1:10 AM 52.9 °F 50.2 °F 91% 30.03 in 10.0 mi Calm Calm - N/A   Clear
1:30 AM 53.2 °F 50.5 °F 91% 30.02 in 10.0 mi Calm Calm - N/A   Clear
1:50 AM 52.7 °F 50.0 °F 91% 30.02 in 10.0 mi Calm Calm - N/A   Clear
2:10 AM 52.7 °F 50.4 °F 92% 30.02 in 10.0 mi Calm Calm - N/A   Clear
2:30 AM 52.0 °F 49.8 °F 92% 30.02 in 10.0 mi Calm Calm - N/A   Clear
2:50 AM 52.2 °F 50.0 °F 92% 30.02 in 10.0 mi Calm Calm - N/A   Clear
3:10 AM 50.9 °F 49.1 °F 94% 30.02 in 10.0 mi Calm Calm - N/A   Clear
3:30 AM 51.3 °F 49.3 °F 93% 30.02 in 10.0 mi Calm Calm - N/A   Clear
3:50 AM 50.5 °F 48.6 °F 93% 30.01 in 10.0 mi Calm Calm - N/A   Clear
4:10 AM 50.7 °F 48.6 °F 92% 30.02 in 10.0 mi Calm Calm - N/A   Clear
4:30 AM 50.2 °F 48.2 °F 93% 30.02 in 10.0 mi Calm Calm - N/A   Clear
4:50 AM 49.8 °F 47.8 °F 93% 30.02 in 10.0 mi Calm Calm - N/A   Clear
5:10 AM 50.2 °F 48.2 °F 93% 30.02 in 10.0 mi Calm Calm - N/A   Clear
5:50 AM 49.6 °F 47.7 °F 93% 30.03 in 10.0 mi Calm Calm - N/A   Clear
6:10 AM 49.1 °F 47.5 °F 94% 30.03 in 10.0 mi Calm Calm - N/A   Clear
6:30 AM 49.1 °F 47.3 °F 93% 30.04 in 10.0 mi Calm Calm - N/A   Clear
6:50 AM 50.4 °F 48.6 °F 94% 30.04 in 10.0 mi Calm Calm - N/A   Clear
7:10 AM 51.8 °F 49.5 °F 92% 30.04 in 10.0 mi Calm Calm - N/A   Clear
7:30 AM 53.6 °F 51.1 °F 91% 30.04 in 10.0 mi Calm Calm - N/A   Clear
7:50 AM 55.9 °F 53.1 °F 90% 30.06 in 10.0 mi Calm Calm - N/A   Clear
8:10 AM 57.2 °F 53.6 °F 88% 30.08 in 10.0 mi Calm Calm - N/A   Clear
8:50 AM 61.9 °F 55.4 °F 79% 30.08 in 10.0 mi Calm Calm - N/A   Clear
10:10 AM 70.5 °F 55.2 °F 58% 30.06 in 10.0 mi Calm Calm - N/A   Clear
10:30 AM 72.5 °F 54.5 °F 53% 30.06 in 10.0 mi Calm Calm - N/A   Clear
10:50 AM 73.9 °F 50.7 °F 44% 30.06 in 10.0 mi Calm Calm - N/A   Clear
11:10 AM 74.8 °F 51.1 °F 43% 30.06 in 10.0 mi NNE 3.5 mph - N/A   Clear
11:30 AM 75.4 °F 48.4 °F 38% 30.06 in 10.0 mi North 4.6 mph - N/A   Clear
11:50 AM 75.7 °F 48.4 °F 38% 30.04 in 10.0 mi ENE 5.8 mph - N/A   Clear
12:10 PM 76.1 °F 47.8 °F 37% 30.04 in 10.0 mi NE 4.6 mph - N/A   Clear
1:10 PM 77.4 °F 47.3 °F 35% 30.02 in 10.0 mi NE 8.1 mph - N/A   Clear
1:30 PM 77.4 °F 46.9 °F 34% 30.01 in 10.0 mi NNW 4.6 mph - N/A   Clear
1:50 PM 78.1 °F 45.5 °F 32% 30.00 in 10.0 mi SE 5.8 mph - N/A   Clear
2:10 PM 78.3 °F 48.7 °F 35% 30.00 in 10.0 mi South 4.6 mph - N/A   Clear
2:30 PM 78.3 °F 48.6 °F 35% 29.99 in 10.0 mi North 6.9 mph - N/A   Clear
2:50 PM 78.6 °F 48.9 °F 35% 29.99 in 10.0 mi NE 9.2 mph - N/A   Clear
3:10 PM 79.3 °F 48.9 °F 34% 29.98 in 10.0 mi NE 8.1 mph - N/A   Clear
3:30 PM 79.5 °F 48.0 °F 33% 29.97 in 10.0 mi Calm Calm - N/A   Clear
3:50 PM 80.1 °F 48.4 °F 33% 29.96 in 10.0 mi East 5.8 mph - N/A   Clear
4:10 PM 80.1 °F 46.0 °F 30% 29.95 in 10.0 mi South 3.5 mph - N/A   Clear
4:30 PM 80.2 °F 48.7 °F 33% 29.95 in 10.0 mi SE 5.8 mph - N/A   Clear
4:50 PM 79.9 °F 48.9 °F 34% 29.96 in 10.0 mi Calm Calm - N/A   Clear
5:10 PM 80.2 °F 48.4 °F 33% 29.95 in 10.0 mi Calm Calm - N/A   Clear
5:30 PM 80.2 °F 47.5 °F 32% 29.95 in 10.0 mi SE 5.8 mph - N/A   Clear
5:50 PM 80.6 °F 46.8 °F 30% 29.95 in 10.0 mi SE 4.6 mph - N/A   Clear
6:10 PM 80.1 °F 47.7 °F 32% 29.94 in 10.0 mi Calm Calm - N/A   Clear
6:30 PM 80.1 °F 46.8 °F 31% 29.93 in 10.0 mi ESE 3.5 mph - N/A   Clear
6:50 PM 79.3 °F 46.2 °F 31% 29.93 in 10.0 mi SE 3.5 mph - N/A   Clear
7:10 PM 79.0 °F 47.8 °F 33% 29.92 in 10.0 mi Calm Calm - N/A   Clear
7:30 PM 78.3 °F 48.2 °F 35% 29.93 in 10.0 mi ESE 3.5 mph - N/A   Clear
7:50 PM 77.0 °F 51.4 °F 41% 29.93 in 10.0 mi Calm Calm - N/A   Clear
8:10 PM 73.4 °F 55.6 °F 54% 29.93 in 10.0 mi Calm Calm - N/A   Clear
8:50 PM 68.4 °F 56.8 °F 67% 29.92 in 10.0 mi Calm Calm - N/A   Clear
9:10 PM 66.6 °F 55.8 °F 68% 29.92 in 10.0 mi Calm Calm - N/A   Clear
9:30 PM 64.8 °F 56.8 °F 75% 29.91 in 10.0 mi Calm Calm - N/A   Clear
9:50 PM 63.1 °F 55.6 °F 76% 29.92 in 10.0 mi West 3.5 mph - N/A   Clear
10:10 PM 62.6 °F 55.8 °F 78% 29.91 in 10.0 mi Calm Calm - N/A   Clear
10:30 PM 61.5 °F 55.9 °F 82% 29.91 in 10.0 mi Calm Calm - N/A   Clear
10:50 PM 60.1 °F 55.2 °F 84% 29.91 in 10.0 mi Calm Calm - N/A   Clear
11:10 PM 59.2 °F 54.1 °F 83% 29.91 in 10.0 mi Calm Calm - N/A   Clear
11:30 PM 59.0 °F 54.9 °F 86% 29.91 in 10.0 mi Calm Calm - N/A   Clear